Location: Newark
(35.9031°N, 139.7175°E)
Time: 05:43:05
(UTC+00:00)

Transit 4A - All Passes

Search period start: 06 June 2020 00:00
Search period end: 16 June 2020 00:00
Orbit: 868 x 976 km, 66.8° (Epoch: 05 June)

Date Brightness Start Highest point End Pass type
(mag) Time Alt. Az. Time Alt. Az. Time Alt. Az.
06 Jun - 01:46:36 10° WNW 01:49:55 15° WSW 01:53:14 10° SW daylight
06 Jun - 13:17:33 10° SSE 13:22:02 24° ESE 13:26:33 10° NE visible
06 Jun - 15:02:28 10° SW 15:08:00 45° WNW 15:13:38 10° NNE visible
06 Jun - 22:22:18 10° N 22:26:38 19° NE 22:31:02 10° E daylight
07 Jun - 00:07:22 10° NNW 00:13:34 73° WSW 00:19:52 10° SSE daylight
07 Jun - 13:25:53 10° S 13:31:08 37° ESE 13:36:29 10° NE visible
07 Jun - 15:12:25 10° WSW 15:17:29 30° NW 15:22:39 10° N visible
07 Jun - 22:31:02 10° N 22:36:16 28° NE 22:41:34 10° ESE daylight
08 Jun - 00:16:53 10° NW 00:22:48 48° WSW 00:28:50 10° S daylight
08 Jun - 13:34:39 10° S 13:40:19 59° ESE 13:46:06 10° NE visible
08 Jun - 15:22:45 10° W 15:27:04 21° NW 15:31:28 10° N visible
08 Jun - 22:40:00 10° NNW 22:45:47 40° ENE 22:51:41 10° SE daylight
09 Jun - 00:26:36 10° NW 00:31:59 31° WSW 00:37:26 10° SSW daylight
09 Jun - 12:03:51 10° ESE 12:04:11 10° E 12:04:31 10° E visible
09 Jun - 13:43:47 10° SSW 13:49:35 90° WNW 13:55:31 10° NNE visible
09 Jun - 15:33:39 10° WNW 15:36:46 14° NW 15:39:56 10° NNW visible
09 Jun - 21:06:24 10° NNE 21:07:36 11° NE 21:08:47 10° NE daylight
09 Jun - 22:49:06 10° NNW 22:55:14 59° ENE 23:01:28 10° SE daylight
10 Jun - 00:36:42 10° WNW 00:41:05 20° WSW 00:45:31 10° SSW daylight
10 Jun - 12:09:30 10° SE 12:13:11 17° ESE 12:16:54 10° ENE visible
10 Jun - 13:53:13 10° SW 13:58:55 59° WNW 14:04:46 10° NNE visible
10 Jun - 21:13:50 10° N 21:17:23 15° NE 21:20:58 10° E daylight
10 Jun - 22:58:20 10° NNW 23:04:35 87° ENE 23:10:57 10° SSE daylight
11 Jun - 00:47:44 10° W 00:50:08 12° WSW 00:52:32 10° SW daylight
11 Jun - 12:17:25 10° SSE 12:22:15 28° ESE 12:27:09 10° NE visible
11 Jun - 14:02:58 10° SW 14:08:21 39° NW 14:13:52 10° NNE visible
11 Jun - 21:22:22 10° N 21:27:05 22° NE 21:31:52 10° E daylight
11 Jun - 23:07:43 10° NW 23:13:52 63° WSW 23:20:08 10° SSE daylight
12 Jun - 12:25:57 10° S 12:31:24 44° ESE 12:36:56 10° NE visible
12 Jun - 14:13:03 10° WSW 14:17:53 27° NW 14:22:49 10° N visible
12 Jun - 21:31:12 10° N 21:36:41 32° NE 21:42:14 10° ESE daylight
12 Jun - 23:17:18 10° NW 23:23:06 41° WSW 23:28:58 10° S daylight
13 Jun - 12:34:51 10° SSW 12:40:36 69° ESE 12:46:28 10° NNE visible
13 Jun - 14:23:32 10° W 14:27:30 18° NW 14:31:32 10° N visible
13 Jun - 21:40:12 10° NNW 21:46:10 46° ENE 21:52:13 10° SE daylight
13 Jun - 23:27:09 10° NW 23:32:14 27° WSW 23:37:24 10° SSW daylight
14 Jun - 11:02:02 10° SE 11:04:22 13° ESE 11:06:43 10° ENE visible
14 Jun - 12:44:05 10° SSW 12:49:53 78° WNW 12:55:50 10° NNE visible
14 Jun - 14:34:44 10° WNW 14:37:15 13° NW 14:39:46 10° NNW visible
14 Jun - 20:05:42 10° NNE 20:08:06 12° NE 20:10:31 10° ENE daylight
14 Jun - 21:49:21 10° NNW 21:55:35 68° ENE 22:01:54 10° SE daylight
14 Jun - 23:37:28 10° WNW 23:41:20 17° WSW 23:45:14 10° SW daylight
15 Jun - 11:09:13 10° SSE 11:13:24 21° ESE 11:17:38 10° ENE visible
15 Jun - 12:53:38 10° SW 12:59:15 51° WNW 13:05:02 10° NNE visible
15 Jun - 20:13:48 10° N 20:17:52 18° NE 20:21:58 10° E daylight
15 Jun - 21:58:39 10° NNW 22:04:55 81° WSW 22:11:16 10° SSE daylight
